Location: Poughquag
(41.6090°N, 73.6820°W)
Time: 02:50:46
(UTC-04:00)

Transit 2A Rocket - Pass Details

Date: 06 June 2020
Orbit: 584 x 919 km, 66.7° (Epoch: 06 July)

Event Time Altitude Azimuth Distance (km) Brightness Sun altitude
Rises 04:15:48 0° 339° (NNW) 3,488 8.7 -10.5°
Reaches altitude 10° 04:19:53 10° 6° (N) 2,590 8.5 -9.9°
Maximum altitude 04:22:39 13° 34° (NNE) 2,382 8.9 -9.5°
Drops below altitude 10° 04:25:26 10° 61° (ENE) 2,615 9.3 -9.1°
Sets 04:29:34 0° 88° (E) 3,552 9.3 -8.6°
